"Pseudo-MPEC" for ZTF02ru

Created 2019 Feb 15 22:18:14 UT using Find_Orb

Click here for an explanation of pseudo-MPECs

 
 Astrometry: 
     ZTF02ru  C2019 02 09.21997509 22 08.03 +71 23 59.1    ~29LI 18.31RUNEOCPI41
     ZTF02ru  C2019 02 09.22032309 22 02.46 +71 24 02.6    ~29LI 18.31RUNEOCPI41
     ZTF02ru  C2019 02 09.22089209 21 54.23 +71 24 08.1    ~29LI 18.46RUNEOCPI41
     ZTF02ru  C2019 02 09.22123809 21 48.58 +71 24 11.1    ~29LI 18.46RUNEOCPI41

Station data:
(I41) Palomar Mountain--ZTF  (N33.357340 W116.859780)  US/California. 1.2-m
   f/2.44 Oschin Schmidt + CCD.

Orbital elements:  ZTF02ru
   Perihelion 2019 May 20.065906 +/- 64.2 TT =  1:34:54 (JD 2458623.565906)
Epoch 2019 Feb  9.0 TT = JDT 2458523.5   Earth MOID: 0.0002   AutoNEOCP
M 252.87018704 +/- 100              (J2000 ecliptic)
n   1.07059254 +/- 0.824            Peri.  297.66406 +/- 58
a   0.94635316 +/- 0.486            Node   321.23598 +/- 110
e   0.1171347 +/- 0.207             Incl.   10.45087 +/- 54
P   0.92/336.26d           H 28.0   G  0.15   U 12.6  SR
q 0.83550230 +/- 0.287    Q 1.05720403 +/- 6.97
From 4 observations 2019 Feb. 9 (1.8 min); mean residual 0".59
Residuals in arcseconds: 
190209 I41  .34+  .10-    190209 I41  1.2+  .15+    
190209 I41  .94-  .07+    190209 I41  .58-  .13-    

Ephemerides (geocentric):
Date (UTC) HH   RA              Dec         delta   r     elong  mag " sig PA
---- -- -- --  -------------   -----------  ------ ------ -----  --- ---- ---
2019 02 15 22  01 34 31.679   -48 43 25.65  .02009 .97714  57.6 24??  43d 118
2019 02 15 23  01 34 19.372   -48 46 48.19  .02024 .97706  57.6 24??  43d 118
2019 02 16 00  01 34 07.205   -48 50 07.59  .02039 .97698  57.5 24??  43d 118
2019 02 16 01  01 33 55.176   -48 53 23.90  .02054 .97690  57.5 24??  43d 118
2019 02 16 02  01 33 43.282   -48 56 37.21  .02070 .97682  57.5 24??  43d 118
2019 02 16 03  01 33 31.520   -48 59 47.56  .02085 .97674  57.5 24??  43d 118
2019 02 16 04  01 33 19.888   -49 02 55.04  .02100 .97666  57.4 24??  43d 118
2019 02 16 05  01 33 08.382   -49 05 59.70  .02116 .97658  57.4 24??  43d 118
2019 02 16 06  01 32 57.002   -49 09 01.59  .02131 .97650  57.4 24??  43d 118
2019 02 16 07  01 32 45.743   -49 12 00.79  .02146 .97642  57.4 24??  43d 118
2019 02 16 08  01 32 34.605   -49 14 57.35  .02161 .97634  57.3 24??  43d 118
2019 02 16 09  01 32 23.584   -49 17 51.31  .02177 .97626  57.3 24??  43d 118
2019 02 16 10  01 32 12.679   -49 20 42.75  .02192 .97618  57.3 24??  43d 118
2019 02 16 11  01 32 01.887   -49 23 31.70  .02207 .97610  57.3 24??  43d 118
2019 02 16 12  01 31 51.206   -49 26 18.22  .02223 .97602  57.2 24??  43d 118
2019 02 16 13  01 31 40.635   -49 29 02.36  .02238 .97594  57.2 24??  43d 118
2019 02 16 14  01 31 30.170   -49 31 44.17  .02253 .97586  57.2 24??  43d 118
2019 02 16 15  01 31 19.811   -49 34 23.69  .02269 .97578  57.2 24??  43d 118
2019 02 16 16  01 31 09.554   -49 37 00.97  .02284 .97570  57.1 24??  43d 118
2019 02 16 17  01 30 59.400   -49 39 36.06  .02299 .97562  57.1 24??  43d 118
2019 02 16 18  01 30 49.344   -49 42 08.99  .02314 .97554  57.1 24??  43d 118
2019 02 16 19  01 30 39.387   -49 44 39.81  .02330 .97546  57.1 24??  43d 118
2019 02 16 20  01 30 29.525   -49 47 08.57  .02345 .97538  57.1 24??  43d 118
2019 02 16 21  01 30 19.758   -49 49 35.29  .02360 .97530  57.0 24??  43d 117
2019 02 16 22  01 30 10.083   -49 52 00.02  .02376 .97522  57.0 24??  43d 117
2019 02 16 23  01 30 00.500   -49 54 22.80  .02391 .97514  57.0 24??  43d 117
2019 02 17 00  01 29 51.005   -49 56 43.67  .02406 .97506  57.0 24??  43d 117
2019 02 17 01  01 29 41.599   -49 59 02.65  .02422 .97498  56.9 24??  43d 117
2019 02 17 02  01 29 32.278   -50 01 19.79  .02437 .97490  56.9 24??  43d 117
2019 02 17 03  01 29 23.043   -50 03 35.11  .02452 .97482  56.9 24??  43d 117
2019 02 17 04  01 29 13.891   -50 05 48.66  .02468 .97474  56.9 24??  43d 117
2019 02 17 05  01 29 04.821   -50 08 00.47  .02483 .97466  56.9 24??  43d 117
2019 02 17 06  01 28 55.831   -50 10 10.56  .02498 .97458  56.8 25??  43d 117
2019 02 17 07  01 28 46.920   -50 12 18.96  .02514 .97450  56.8 25??  43d 117
2019 02 17 08  01 28 38.088   -50 14 25.72  .02529 .97442  56.8 25??  43d 117
2019 02 17 09  01 28 29.331   -50 16 30.85  .02544 .97434  56.8 25??  43d 117
2019 02 17 10  01 28 20.650   -50 18 34.38  .02560 .97426  56.8 25??  43d 117
2019 02 17 11  01 28 12.043   -50 20 36.35  .02575 .97418  56.7 25??  43d 117
2019 02 17 12  01 28 03.509   -50 22 36.78  .02590 .97410  56.7 25??  43d 117
2019 02 17 13  01 27 55.046   -50 24 35.70  .02606 .97402  56.7 25??  43d 117
2019 02 17 14  01 27 46.653   -50 26 33.13  .02621 .97394  56.7 25??  43d 117
2019 02 17 15  01 27 38.330   -50 28 29.09  .02636 .97386  56.7 25??  43d 117
2019 02 17 16  01 27 30.075   -50 30 23.62  .02652 .97377  56.7 25??  43d 117
2019 02 17 17  01 27 21.886   -50 32 16.74  .02667 .97369  56.6 25??  43d 117
2019 02 17 18  01 27 13.764   -50 34 08.47  .02682 .97361  56.6 25??  43d 117
2019 02 17 19  01 27 05.706   -50 35 58.84  .02698 .97353  56.6 25??  43d 117
2019 02 17 20  01 26 57.713   -50 37 47.86  .02713 .97345  56.6 25??  43d 117
2019 02 17 21  01 26 49.782   -50 39 35.56  .02728 .97337  56.6 25??  43d 117